sat.trackr.live / text

‹ back to catalog

STARLINK-5069

NORAD 55640 · 2023-021N

PAYLOAD ACTIVE UNKNOWN

§ Identity

Operator
Country
US
Launch date
2023-02-17
Launch site
AFWTR
Launch vehicle
Mass (kg)
RCS (m²)

Purposes: comms

External: N2YO · Heavens-Above · Gunter

§ Orbital elements

Epoch: 2026-05-25T00:06:48.505248Z

Period
96.11 min
Inclination
69.9995°
Eccentricity
0.0002260
Mean motion
14.98335464 rev/d
Perigee alt
570.5 km
Apogee alt
573.6 km
Semi-major
6,950.2 km
B*
-5.3603e-5
RAAN
351.9981°
Arg perigee
263.6551°
Mean anomaly
96.4351°
Rev number
18,022

§ Raw data

STARLINK-50691 55640U 23021N   26145.00472807 -.00000732  00000+0 -53603-4 0  99982 55640  69.9995 351.9981 0002260 263.6551  96.4351 14.98335464180221

JSON: /api/v1/satellites/55640 · /tle

For live sub-satellite position, see the globe view (requires WebGL).

§ Visibility from observer

Set your observer location to see the next 7 days of passes ≥ 10°. The values pass through the URL so the page stays shareable.

No JS? Fill the form by hand. The geolocation button needs JavaScript.